Location: Esp�n
(42.4593°N, 0.2047°W)
Time: 20:46:38
(UTC+00:00)

Cosmos 2237 Rocket - Pass Details

Date: 07 June 2020
Orbit: 834 x 851 km, 71.0° (Epoch: 13 July)

Event Time Altitude Azimuth Distance (km) Brightness Sun altitude
Rises 03:36:10 0° 175° (S) 3,381 5.0 -7.9°
Reaches altitude 10° 03:38:49 10° 165° (SSE) 2,454 4.4 -7.5°
Maximum altitude 03:43:45 32° 104° (ESE) 1,413 3.8 -6.8°
Drops below altitude 10° 03:48:43 10° 43° (NE) 2,479 6.4 -6.1°
Sets 03:51:24 0° 34° (NE) 3,421 7.1 -5.7°
